Weather History for Orlando International, FL

Change the Weather History Date:

Wednesday, December 5, 2012

  Actual Average Record
Temperature  
Mean Temperature 68 °F 65 °F  
Max Temperature 80 °F 75 °F 91 °F (1928)
Min Temperature 56 °F 55 °F 33 °F (1907)
Degree Days  
Heating Degree Days 0 3  
Month to date heating degree days 0 15  
Since 1 July heating degree days 76 62  
Cooling Degree Days 3 3  
Month to date cooling degree days 20 15  
Year to date cooling degree days 3511 3369  
Growing Degree Days 18 (Base 50)    
Moisture  
Dew Point 60 °F    
Average Humidity 74    
Maximum Humidity 93    
Minimum Humidity 54    
Precipitation  
Precipitation 0.06 in 0.08 in 1.67 in (1985)
Month to date precipitation 0.06 0.41  
Year to date precipitation 39.87 48.56  
Sea Level Pressure  
Sea Level Pressure 30.13 in    
Wind  
Wind Speed 6 mph (NNE)    
Max Wind Speed 22 mph    
Max Gust Speed 26 mph    
Visibility 10 miles    
Events Rain    
T = Trace of Precipitation, MM = Missing Value Source: NWS Daily Summary

Daily Weather History Graph

Daily Weather History Graph

Search for Another Location

Airport:

Trip Planner

Search our weather history database for the weather conditions in past years. The results will help you decide how hot, cold, wet, or windy it might be!

Date:

Astronomy

Dec. 05, 2012 Rise Set
Actual Time 7:03 AM EST 5:28 PM EST
Civil Twilight 6:37 AM EST 5:54 PM EST
Nautical Twilight 6:08 AM EST 6:23 PM EST
Astronomical Twilight 5:39 AM EST 6:52 PM EST
Moon 11:52 PM EST (12/5) 11:48 AM EST (12/5)
Length of Visible Light 11h 16m
Length of Day
10h 25m
Waning Gibbous, 60% of the Moon is Illuminated
Dec 5
Waning Gibbous
Dec 6
Last Quarter
Dec 13
New
Dec 20
First Quarter
Dec 28
Full

Hourly Weather History & Observations

Time (EST) Temp. Dew Point Humidity Pressure Visibility Wind Dir Wind Speed Gust Speed Precip Events Conditions
12:53 AM 59.0 °F 55.0 °F 87% 30.21 in 10.0 mi North 5.8 mph - N/A   Mostly Cloudy
1:53 AM 61.0 °F 57.0 °F 87% 30.19 in 10.0 mi North 3.5 mph - N/A   Mostly Cloudy
2:53 AM 62.1 °F 57.0 °F 84% 30.18 in 10.0 mi Calm Calm - N/A   Mostly Cloudy
3:53 AM 63.0 °F 57.9 °F 84% 30.17 in 10.0 mi NNE 4.6 mph - N/A   Mostly Cloudy
4:53 AM 64.0 °F 57.9 °F 80% 30.16 in 10.0 mi Calm Calm - N/A   Overcast
5:53 AM 64.9 °F 61.0 °F 87% 30.15 in 10.0 mi NE 6.9 mph - N/A   Overcast
6:53 AM 64.9 °F 61.0 °F 87% 30.15 in 10.0 mi NNE 8.1 mph - N/A   Mostly Cloudy
7:53 AM 64.9 °F 62.1 °F 90% 30.18 in 10.0 mi ESE 4.6 mph - N/A   Mostly Cloudy
9:53 AM 71.1 °F 60.1 °F 68% 30.19 in 10.0 mi NNE 5.8 mph - N/A   Mostly Cloudy
10:53 AM 73.9 °F 60.1 °F 62% 30.18 in 10.0 mi North 6.9 mph - N/A   Mostly Cloudy
11:53 AM 75.9 °F 59.0 °F 56% 30.15 in 10.0 mi Variable 3.5 mph - N/A   Mostly Cloudy
12:53 PM 77.0 °F 60.1 °F 56% 30.12 in 10.0 mi Variable 3.5 mph - N/A   Mostly Cloudy
1:53 PM 78.1 °F 60.1 °F 54% 30.09 in 10.0 mi NNE 6.9 mph - N/A   Mostly Cloudy
2:53 PM 77.0 °F 61.0 °F 58% 30.07 in 10.0 mi NE 11.5 mph - N/A   Mostly Cloudy
3:53 PM 75.0 °F 59.0 °F 57% 30.07 in 10.0 mi NNE 6.9 mph - N/A   Mostly Cloudy
4:53 PM 73.0 °F 59.0 °F 61% 30.07 in 10.0 mi East 6.9 mph - 0.00 in Rain Light Rain
5:53 PM 68.0 °F 66.9 °F 96% 30.08 in 10.0 mi NE 8.1 mph - 0.06 in Rain Light Rain
6:53 PM 66.9 °F 64.0 °F 90% 30.08 in 10.0 mi NE 9.2 mph - 0.00 in   Mostly Cloudy
7:53 PM 66.9 °F 63.0 °F 87% 30.10 in 10.0 mi NE 6.9 mph - N/A   Overcast
8:53 PM 64.9 °F 63.0 °F 93% 30.10 in 10.0 mi NE 5.8 mph - N/A   Scattered Clouds
9:53 PM 63.0 °F 61.0 °F 93% 30.08 in 10.0 mi North 4.6 mph - N/A   Partly Cloudy
10:53 PM 63.0 °F 61.0 °F 93% 30.09 in 10.0 mi North 5.8 mph - N/A   Partly Cloudy
11:53 PM 63.0 °F 61.0 °F 93% 30.08 in 10.0 mi NNE 6.9 mph - N/A   Scattered Clouds